This is the latest recevied weather packets stored in our database for station/object N0HOT. If no packets are shown the sender has not sent any weather packets the latest 10 day(s).
| Time | Temp. | Humidity | Pressure | Rain* | Wind** | Luminosity | Snow |
|---|---|---|---|---|---|---|---|
| 1777565550 | 10.56° C | 46% | 1016.7 hPa | 0 mm | - | 346 W/m² | - |
| 1777565247 | 10° C | 45% | 1016.3 hPa | 0 mm | - | 326 W/m² | - |
| 1777564943 | 10° C | 44% | 1016.7 hPa | 0 mm | - | 375 W/m² | - |
| 1777564638 | 10.56° C | 44% | 1016.7 hPa | 0 mm | - | 311 W/m² | - |
| 1777564334 | 10.56° C | 46% | 1016.7 hPa | 0 mm | - | 323 W/m² | - |
| 1777564030 | 10.56° C | 48% | 1016.7 hPa | 0 mm | - | 344 W/m² | - |
| 1777563726 | 10.56° C | 50% | 1017 hPa | 0 mm | - | 344 W/m² | - |
| 1777563422 | 10.56° C | 50% | 1016.7 hPa | 0 mm | - | 305 W/m² | - |
| 1777563117 | 10.56° C | 49% | 1016.7 hPa | 0 mm | - | 320 W/m² | - |
| 1777562813 | 10° C | 50% | 1016.7 hPa | 0 mm | - | 437 W/m² | - |
| 1777562511 | 10° C | 52% | 1016.7 hPa | 0 mm | - | 314 W/m² | - |
| 1777562209 | 10° C | 50% | 1017 hPa | 0 mm | - | 324 W/m² | - |
| 1777561906 | 10° C | 50% | 1017 hPa | 0 mm | - | 300 W/m² | - |
| 1777561603 | 9.44° C | 52% | 1016.7 hPa | 0 mm | - | 236 W/m² | - |
| 1777561299 | 9.44° C | 53% | 1016.7 hPa | 0 mm | - | 239 W/m² | - |
| 1777560998 | 8.89° C | 56% | 1017 hPa | 0 mm | - | 268 W/m² | - |
| 1777560694 | 8.89° C | 55% | 1017.3 hPa | 0 mm | - | 268 W/m² | - |
| 1777560392 | 8.89° C | 56% | 1017.3 hPa | 0 mm | - | 210 W/m² | - |
| 1777560090 | 8.33° C | 56% | 1017 hPa | 0 mm | - | 250 W/m² | - |
| 1777559785 | 8.33° C | 56% | 1017 hPa | 0 mm | - | 250 W/m² | - |
| 1777559482 | 8.33° C | 55% | 1017.3 hPa | 0 mm | - | 296 W/m² | - |
| 1777559180 | 7.78° C | 56% | 1017.3 hPa | 0 mm | - | 349 W/m² | - |
| 1777558879 | 7.22° C | 56% | 1017.3 hPa | 0 mm | - | 552 W/m² | - |
| 1777558575 | 7.22° C | 59% | 1017.3 hPa | 0 mm | - | 511 W/m² | - |
| 1777558265 | 6.67° C | 61% | 1017.8 hPa | 0 mm | - | 127 W/m² | - |
* Rain latest hour (hover to see other rain measurements)
** Current wind speed in m/s (hover to see current wind gust speed)